Regional Weather Roundup
Issued by NWS

Home | Current Version | Previous Version | Graphics & Text | Print | Product List | Glossary On
Versions: 1 2 3 4 5 6 7 8 9 10 11 12 13 14 15 16 17 18 19 20 21 22 23 24 25 26 27 28 29 30 31 32 33 34 35 36 37 38 39 40 41 42 43 44 45 46 47 48 49 50
585
ASUS45 KPSR 181910
RWRAZ

ARIZONA HOURLY REGIONAL WEATHER ROUNDUP
NATIONAL WEATHER SERVICE PHOENIX AZ
1200 PM MST WED OCT 18 2017

NOTE: FAIR INDICATES FEW OR NO CLOUDS BELOW 12,000 FEET WITH NO
SIGNIFICANT WEATHER AND/OR OBSTRUCTIONS TO VISIBILITY.

AZZ001>003-036-182000-
NORTHWEST ARIZONA

CITY           SKY/WX    TMP DP  RH WIND       PRES   REMARKS
BULLHEAD CITY  CLOUDY    82  19   9 NW10      29.95F
KINGMAN        CLOUDY    82  24  12 VRB3      30.10S
$$

AZZ004>008-015-016-018-182000-
NORTH CENTRAL ARIZONA

CITY           SKY/WX    TMP DP  RH WIND       PRES   REMARKS
GRAND CANYON   MOSUNNY   72  26  18 SW9       30.27F
WILLIAMS       PTSUNNY   73  23  15 VRB7G15   30.28F
PRESCOTT       MOSUNNY   76  30  18 W5        30.19F
FLAGSTAFF      SUNNY     71  27  19 S13G21    30.29F
PAYSON           N/A     79  32  18 SW9       30.21F
PAGE           PTSUNNY   69  22  16 N6        30.16F
$$

AZZ009>014-017-182000-
NORTHEAST ARIZONA

CITY           SKY/WX    TMP DP  RH WIND       PRES   REMARKS
WINSLOW        SUNNY     76  25  15 NE6       30.19F
SAINT JOHNS    SUNNY     75  34  22 CALM      30.21F
WINDOW ROCK    SUNNY     73  25  16 VRB7      30.28F
SHOW LOW       SUNNY     73  30  20 SW7       30.27F
$$

AZZ540-542>544-546-548-182000-
GREATER PHOENIX AREA

CITY           SKY/WX    TMP DP  RH WIND       PRES   REMARKS
PHOENIX        MOSUNNY   91  46  21 S3        29.93F
BUCKEYE        MOSUNNY   86  50  28 SE6       29.95F
GLENDALE       MOSUNNY   90  46  22 CALM      29.96F
LUKE AFB       SUNNY     88  45  22 SE3       29.93F
DEER VALLEY    SUNNY     90  43  19 SW5       29.95F
SCOTTSDALE     SUNNY     91  43  18 SW5       29.97F
MESA-FALCON    MOSUNNY   90  48  24 W8        29.97F
MESA-GATEWAY   MOSUNNY   90  45  20 VRB5      29.97F
CHANDLER       SUNNY     88  46  23 VRB5      29.96F
$$

AZZ539-553-182000-
SOUTHWEST MARICOPA COUNTY AND PINAL COUNTY

CITY           SKY/WX    TMP DP  RH WIND       PRES   REMARKS
CASA GRANDE    NOT AVBL
GILA BEND      PTSUNNY   90  37  15 CALM      29.92F
$$

AZZ503-504-507>509-182000-
SOUTHEAST ARIZONA

CITY           SKY/WX    TMP DP  RH WIND       PRES   REMARKS
TUCSON         SUNNY     90  38  16 NW5       30.04F
DAVIS-MONTHAN  MOSUNNY   91  36  14 W3        30.01F
RYAN FIELD     SUNNY     91  39  16 CALM      30.03
NOGALES        SUNNY     89  41  18 VRB7      30.10F
SIERRA VISTA   MOSUNNY   84  39  20 CALM      30.17F
DOUGLAS        SUNNY     85  42  22 S7        30.12F
SAFFORD        SUNNY     85  41  21 VRB5      30.05F
$$

AZZ532-182000-
SOUTHWEST ARIZONA

CITY           SKY/WX    TMP DP  RH WIND       PRES   REMARKS
YUMA           PTSUNNY   91  28  10 SE3       29.90F
$$

CAZ041-043-047-048-061-525>527-560>570-182000-
SOUTHERN CALIFORNIA

CITY           SKY/WX    TMP DP  RH WIND       PRES   REMARKS
DOWNTOWN L.A.  SUNNY     85  54  34 CALM      29.94S
L.A. AIRPORT   MOSUNNY   77  60  55 W10       29.96S
SAN DIEGO      MOSUNNY   74  63  68 SW9       29.98F
BURBANK        SUNNY     83  42  23 S6        29.95F
ONTARIO        MOSUNNY   84  35  17 SW5       29.96F
RIVERSIDE      MOSUNNY   84  40  21 CALM      29.95F
PALM SPRINGS   MOSUNNY   95  35  12 VRB5      29.90F
EL CENTRO NAS  CLOUDY    94  37  13 E8        29.89F
IMPERIAL       CLOUDY    92  41  17 MISG      29.87F
BLYTHE         MOSUNNY   84  32  15 E6        29.92F
NEEDLES        CLOUDY    84  15   7 N8        29.97F
$$

NVZ020-UTZ003-182000-
SOUTHERN NEVADA-UTAH

CITY           SKY/WX    TMP DP  RH WIND       PRES   REMARKS
LAS VEGAS      PTSUNNY   76  21  12 E6        30.05S
SALT LAKE CITY MOSUNNY   65  28  24 CALM      30.20F
$$

NMZ009-TXZ055-182000-
NEW MEXICO-WEST TEXAS

CITY           SKY/WX    TMP DP  RH WIND       PRES   REMARKS
ALBUQUERQUE    CLOUDY    70  11  10 CALM      30.23F
EL PASO        PTSUNNY   80  47  31 S6        30.13F
$$


........................KEY........................
SKY/WX - SKY CONDITION/WEATHER
TMP    - TEMPERATURE IN FAHRENHEIT
DP     - DEW POINT IN FAHRENHEIT
RH     - RELATIVE HUMIDITY IN PERCENT
WIND   - DIRECTION AND SPEED IN MILES PER HOUR (MPH)
VRB    - VARIABLE WIND DIRECTION
PRES   - MEAN SEA LEVEL PRESSURE IN INCHES OF MERCURY
         F - FALLING PRESSURE   R - RISING PRESSURE
         S - STEADY PRESSURE
VSB    - VISIBILITY IN MILES
HX     - HEAT INDEX IN FAHRENHEIT
WCI    - WIND CHILL INDEX IN FAHRENHEIT
TC     - TEMPERATURE IN CELSIUS WHICH IS ALSO KNOWN AS
         TEMPERATURE IN CENTIGRADE
AFB    - AIR FORCE BASE
         LUKE AFB IS LUKE AIR FORCE BASE
         DAVIS-MONTHAN IS DAVIS-MONTHAN AIR FORCE BASE
NAS    - NAVAL AIR STATION
         EL CENTRO NAS IS EL CENTRO NAVAL AIR STATION
N/A    - NOT AVAILABLE





USA.gov is the U.S. government's official web portal to all federal, state and local government web resources and services.